Theta_e
315 318 319 320 320 322 322 322 322 319 317 314 311 308 306 304 303 302 303 303 304 304 304 303 302 301 300 299 302 309 311 309 309 306 301 298 296 294 294 294 291 289 287
307 308 312 314 316 318 320 319 321 318 318 318 312 310 306 305 303 301 299 300 301 301 300 300 299 298 297 297 298 302 307 304 302 309 307 302 298 294 292 291 289 287 287
308 305 306 309 311 314 316 318 319 318 318 311 305 304 303 303 300 299 298 297 298 298 298 297 296 296 296 295 295 297 302 302 300 300 306 302 300 298 293 289 288 288 287
301 303 304 304 307 310 310 315 317 316 313 311 309 308 308 301 303 299 297 295 296 295 296 295 294 294 294 293 294 293 295 295 293 297 296 300 300 299 296 290 287 287 285
297 299 302 303 303 303 306 310 314 313 311 311 311 310 305 301 298 297 295 294 293 293 294 294 293 292 292 292 292 291 292 292 291 291 292 294 296 295 298 295 288 286 285
294 298 301 300 300 300 303 306 310 309 309 309 307 307 301 297 296 295 294 292 291 291 292 292 292 291 290 290 289 289 289 288 287 287 288 289 289 288 290 291 290 288 285
292 297 298 297 297 298 300 303 306 305 307 307 305 303 301 299 297 296 294 291 289 290 290 291 290 290 289 288 288 287 287 286 286 285 284 285 285 287 287 288 288 288 285
293 295 296 297 296 297 298 300 302 302 304 304 303 302 299 298 297 296 294 291 290 290 289 289 289 289 288 287 287 286 285 285 285 284 284 284 284 284 285 286 285 285 286
292 294 295 295 295 295 296 298 299 299 301 302 301 299 297 296 295 294 292 290 289 289 288 289 288 287 287 286 286 286 285 285 285 284 283 283 282 283 283 283 284 284 282
291 292 293 294 294 294 294 295 296 297 298 298 298 297 296 295 294 292 289 288 288 288 287 287 287 286 286 286 285 285 284 284 284 283 282 282 282 281 282 281 281 282 282
291 291 292 292 292 292 292 292 293 294 294 295 295 294 294 293 291 290 288 288 288 287 287 287 286 286 285 285 284 284 283 283 282 282 282 281 281 280 280 280 279 279 281
291 291 291 291 290 290 290 290 292 292 292 293 292 292 291 290 289 288 287 287 287 287 287 286 286 285 285 284 284 283 283 282 282 281 281 280 279 278 278 279 278 278 279
291 291 290 289 289 289 289 289 290 291 290 290 290 289 289 288 288 286 286 286 286 286 286 285 285 284 284 284 284 283 282 282 282 281 280 279 279 278 278 278 278 278 278
290 290 289 290 290 289 289 288 288 289 289 288 288 287 287 287 286 285 285 285 285 285 285 285 284 284 283 283 283 282 282 281 280 280 279 279 278 278 277 277 277 277 277
290 290 290 291 290 289 289 288 288 288 288 287 287 287 286 286 285 285 284 284 284 284 284 283 283 283 283 282 282 282 281 280 279 279 279 279 279 279 278 277 276 276 276
291 291 291 291 291 290 289 289 288 287 287 287 286 286 285 284 284 284 283 283 283 283 283 282 282 282 282 284 285 282 280 279 278 277 278 280 280 281 280 279 278 276 275
291 291 292 292 292 291 291 289 289 287 286 286 284 284 284 283 283 284 283 282 282 282 282 282 281 281 282 286 286 285 280 279 278 278 278 277 278 279 279 279 277 276 277
291 292 293 292 292 291 290 290 287 286 285 284 284 284 283 283 282 282 282 282 282 281 281 281 281 281 281 285 287 287 280 279 278 278 277 277 276 277 275 272 271 271 270
292 293 294 293 291 291 289 288 286 285 285 285 284 284 283 282 282 282 282 282 281 281 281 281 280 280 280 285 286 287 281 279 277 277 277 277 276 277 278 272 271 271 271
291 291 291 291 291 289 288 287 286 285 285 285 285 284 284 283 283 282 282 280 281 282 281 281 280 280 280 284 286 287 281 279 277 277 276 278 277 278 280 273 271 268 269
289 289 288 289 287 286 287 287 286 286 286 283 283 283 283 284 284 283 280 281 281 281 280 280 279 279 279 280 286 287 281 280 278 277 276 276 280 280 280 279 272 271 270
286 286 287 284 280 284 287 285 285 282 282 282 282 282 282 283 282 283 281 279 280 280 279 278 278 278 277 279 284 286 287 282 279 277 276 276 280 281 281 280 277 277 272
282 280 282 279 277 278 283 284 282 282 281 282 282 282 281 282 281 281 279 278 277 279 279 277 278 278 276 278 283 285 287 287 279 277 277 278 280 281 281 282 280 276 267
277 277 279 279 277 276 279 279 279 278 281 281 278 276 277 276 276 278 279 278 277 277 277 277 277 277 276 276 277 280 283 284 286 280 279 280 279 280 278 277 279 270 267
275 278 279 277 274 275 274 274 275 277 278 277 274 275 275 275 274 275 276 277 276 279 277 278 279 276 276 277 278 278 278 280 282 278 276 277 276 275 274 274 271 268 265
275 277 275 275 272 273 272 271 271 274 275 275 274 273 274 272 273 273 273 278 282 282 284 284 280 276 281 282 282 283 283 283 283 277 276 275 275 274 274 272 269 266 264
Wind_Speed
3 5 7 7 6 6 8 9 10 10 9 5 5 3 3 3 3 4 6 6 5 5 6 4 4 5 6 5 4 3 5 4 3 3 4 5 6 7 6 6 7 9 9
6 6 6 7 9 10 11 10 11 13 10 8 4 4 4 3 4 3 5 5 5 5 6 5 5 6 5 7 6 4 2 2 3 1 1 2 3 5 6 6 6 7 6
12 7 8 8 7 10 13 13 13 13 11 10 8 7 6 4 3 2 4 3 5 6 6 7 6 6 5 5 4 3 4 3 3 6 2 1 1 1 2 5 4 6 6
6 6 8 7 10 10 5 8 11 13 11 12 9 9 5 4 3 3 5 4 5 6 7 7 7 6 4 5 4 4 3 3 3 2 4 4 3 2 1 2 4 5 5
9 10 10 9 5 6 7 7 10 11 11 10 9 7 6 4 5 6 8 6 5 5 6 6 7 6 5 6 6 6 7 4 3 2 1 2 3 3 2 1 2 3 2
8 7 5 6 5 5 6 7 11 8 9 9 8 9 10 10 8 7 6 5 4 4 5 6 6 6 6 6 6 6 8 6 6 4 5 2 2 1 1 1 1 1 2
7 7 9 8 7 8 7 6 9 8 7 8 7 7 9 10 10 10 7 8 4 3 4 5 6 5 6 6 6 7 7 5 5 5 4 3 3 1 1 1 1 1 2
5 7 7 7 8 7 7 6 7 7 6 6 6 6 8 6 6 7 7 5 4 6 5 6 7 7 6 6 6 6 6 6 5 7 5 4 3 2 1 1 1 0 3
4 6 5 6 7 7 7 7 7 6 6 6 6 6 7 8 7 7 6 5 6 6 7 7 7 6 6 6 6 5 5 5 5 5 5 4 2 2 2 1 1 1 2
5 5 5 7 5 5 5 5 5 6 5 6 5 6 7 6 8 8 8 8 7 8 8 8 7 7 7 6 6 5 5 6 4 3 5 4 2 2 2 1 0 0 2
6 5 5 4 5 4 5 5 6 7 6 5 5 6 6 6 7 7 7 7 7 8 8 7 7 7 7 6 6 5 6 6 5 4 4 4 2 1 1 1 1 1 2
7 7 7 6 6 5 5 6 6 6 5 5 5 6 6 7 7 7 6 7 8 6 7 7 6 6 6 6 6 7 5 5 5 5 4 4 3 2 1 1 1 2 2
6 5 6 7 7 6 6 6 6 6 5 6 7 6 6 7 7 6 7 7 8 7 6 6 7 7 7 7 5 6 6 5 5 5 5 5 5 3 2 2 1 2 3
7 6 6 7 7 7 7 7 6 5 6 6 6 6 6 7 7 7 7 8 7 8 7 6 7 7 7 6 6 7 6 5 5 5 4 4 4 4 4 2 2 2 2
7 8 8 8 8 8 7 6 6 7 7 8 7 8 7 7 7 7 7 7 7 7 7 7 5 6 6 6 8 7 7 7 5 4 5 4 4 5 5 3 4 4 3
9 8 8 9 10 10 9 8 9 9 9 9 8 7 8 7 7 7 7 7 7 6 5 5 6 7 5 10 12 8 7 7 7 7 6 5 4 5 6 5 5 4 4
8 9 10 10 10 11 11 12 11 7 8 7 7 7 7 8 9 8 7 7 7 5 6 7 7 7 6 11 13 14 6 6 7 7 6 6 4 4 5 5 4 4 2
9 8 8 9 9 8 9 8 8 9 9 8 9 8 9 9 7 7 7 6 6 9 8 8 7 5 5 13 14 13 7 6 7 8 8 8 8 8 7 5 4 2 1
9 9 8 7 7 10 10 10 8 9 9 10 9 9 9 9 9 9 10 7 6 6 8 6 9 9 7 16 16 14 8 8 8 7 8 8 8 12 14 8 6 4 3
6 8 7 6 8 8 11 12 10 10 12 11 11 10 11 10 11 10 10 5 6 9 6 8 8 10 9 17 18 17 6 8 5 6 7 13 10 14 16 9 7 6 6
7 4 5 6 4 7 9 9 8 13 7 6 7 9 11 13 11 9 6 7 8 6 8 8 6 9 9 9 18 20 7 8 6 6 6 6 18 17 17 16 9 8 6
4 2 6 5 3 7 9 7 9 4 6 6 6 8 8 6 6 9 7 5 7 7 6 6 6 5 5 10 16 19 21 14 8 7 6 7 18 18 17 14 16 13 8
3 3 7 6 5 3 5 8 6 8 9 8 9 8 7 7 5 6 4 3 4 5 5 5 7 5 4 5 17 19 21 20 9 6 10 15 17 19 16 18 16 10 6
3 3 6 7 5 4 5 3 5 4 4 3 4 4 3 3 2 2 3 3 4 4 3 4 6 5 3 5 6 7 8 16 13 13 10 12 13 14 10 7 11 6 7
3 4 6 6 6 5 6 7 4 3 6 5 4 3 3 4 3 3 3 4 3 5 5 6 5 5 6 6 11 10 8 8 10 6 4 6 5 7 5 5 5 6 6
5 6 7 7 5 6 8 6 5 4 5 6 3 3 3 2 1 1 1 5 10 11 14 13 8 3 10 6 10 14 16 16 15 4 6 8 8 10 9 8 8 6 8
Wind_Direction
209 178 175 175 176 171 167 170 163 154 146 145 140 131 132 106 83 76 78 78 80 83 87 83 75 63 58 45 30 57 76 66 42 125 111 80 68 67 65 60 58 58 55
185 185 168 172 183 185 189 178 179 166 171 162 141 134 134 92 94 109 76 73 81 82 87 84 71 66 76 56 51 57 113 96 14 296 157 185 150 82 66 66 73 70 63
208 191 194 196 192 197 192 188 179 172 170 142 118 101 97 93 126 167 101 78 90 84 84 82 85 81 85 82 77 90 129 143 62 40 354 261 359 120 72 69 78 73 66
209 188 195 202 207 212 177 178 170 167 159 151 145 159 148 155 152 153 124 111 88 85 88 93 93 94 103 100 80 61 81 116 103 93 42 53 5 294 256 108 66 70 76
200 204 199 204 197 171 176 164 155 158 155 157 160 149 137 112 124 133 129 122 102 97 103 107 109 103 91 80 78 71 69 66 94 88 141 92 68 30 308 311 138 130 101
212 207 187 160 163 160 157 156 153 147 149 157 155 159 146 139 140 149 143 136 119 104 97 98 96 93 91 90 85 83 80 88 86 73 55 65 78 80 82 222 208 305 140
205 187 180 173 162 166 158 151 151 149 153 151 154 148 148 149 159 161 156 153 146 131 131 117 104 97 98 97 99 91 87 83 95 97 88 88 76 97 104 189 226 258 157
199 197 184 169 164 162 161 153 146 136 147 143 152 147 147 157 162 158 152 152 149 143 140 118 114 108 103 101 101 98 92 95 101 108 94 98 85 84 134 150 228 268 215
203 200 178 168 162 163 171 162 155 145 150 156 143 153 156 160 162 145 137 142 140 135 133 126 118 120 117 106 95 103 113 106 100 101 110 101 88 83 73 89 197 165 284
193 185 183 176 173 167 162 152 146 152 155 152 159 162 164 154 142 141 149 152 139 134 137 134 135 129 123 124 121 116 118 110 114 122 118 116 124 87 75 83 50 232 189
198 192 191 181 168 154 156 150 150 153 162 162 153 148 144 144 143 146 150 145 134 142 141 144 141 136 127 135 130 124 137 136 130 125 129 109 120 134 117 59 32 196 195
188 178 171 171 167 170 160 172 173 167 163 155 145 146 141 143 142 151 144 139 136 140 145 146 144 147 144 153 155 150 158 154 143 155 153 154 166 151 96 70 342 286 244
184 177 159 172 177 182 184 182 176 178 162 152 153 151 153 149 150 141 140 144 143 148 147 152 158 158 167 166 164 159 162 170 169 178 178 172 182 177 164 136 225 284 284
200 188 178 187 181 188 191 188 183 171 164 158 156 154 158 151 151 151 150 152 157 156 164 176 173 172 173 166 171 167 167 176 179 180 175 177 201 188 165 183 224 229 252
199 200 193 190 190 192 189 187 181 177 166 165 170 166 160 156 151 157 163 157 163 170 176 174 177 171 180 180 177 175 178 185 177 185 175 187 197 182 187 184 207 203 189
209 206 202 193 193 191 189 183 188 187 168 174 174 159 162 154 163 159 167 168 173 180 175 184 181 189 206 191 187 176 185 191 187 193 186 174 159 147 141 156 182 200 203
207 201 205 202 195 187 185 186 188 159 172 165 152 171 157 161 178 178 172 173 175 160 190 199 196 205 208 198 197 196 187 192 205 199 186 181 172 155 139 143 108 56 72
208 211 203 205 194 182 177 150 151 164 172 168 176 173 171 183 175 169 174 183 175 195 198 209 207 206 198 207 207 198 191 202 206 203 197 190 186 187 171 177 191 188 210
201 214 198 193 166 180 162 157 166 166 174 186 185 178 176 175 185 181 190 192 186 194 201 195 197 202 205 207 207 202 189 210 210 205 200 200 197 200 197 193 198 194 202
204 201 185 169 168 173 161 164 176 177 195 186 186 177 176 182 191 191 195 178 197 211 201 217 205 204 209 207 208 207 183 210 208 205 202 207 203 208 212 192 190 204 210
218 172 165 181 188 144 155 174 166 201 182 144 158 175 186 192 194 187 177 184 203 203 202 215 211 210 206 209 214 217 192 207 207 209 200 207 217 214 218 206 190 205 174
43 130 149 141 134 149 154 157 186 133 135 150 173 189 194 188 180 193 190 188 187 210 220 218 234 226 197 208 222 220 221 205 205 212 201 206 215 219 220 226 197 210 178
46 34 118 102 47 73 144 169 180 153 167 170 179 186 187 189 174 182 166 165 169 206 216 214 235 238 191 217 228 228 229 223 206 198 206 215 220 223 225 225 208 190 161
66 55 94 91 72 32 57 62 100 70 102 134 104 95 107 109 97 110 144 174 191 205 215 216 235 238 205 215 213 228 235 239 220 212 216 207 211 215 206 213 201 161 182
31 82 95 88 82 68 67 53 66 105 107 105 103 110 127 151 168 197 182 206 210 192 204 229 221 201 233 226 215 208 214 222 226 166 178 196 202 204 203 190 175 176 176
14 69 79 95 77 80 71 48 26 64 118 101 105 108 124 139 160 165 311 258 243 237 245 243 216 236 247 245 234 232 236 238 232 191 203 206 203 209 203 202 196 196 197